DW0479 Weather Reports


time (UTC)temp
C
wind
direction
speed
KPH
gust
KPH
rain 1hr
cm
rain 24hr
cm
rain mn
cm
humidity
%
barometer
mb
20260504150214 27 54 11.3 25.7 0.00 0.00 0.00 55 1017.2
20260504141210 25 29 12.9 24.1 0.00 0.00 0.00 63 1017.1
20260504140210 25 19 11.3 29.0 0.00 0.00 0.00 63 1017.0
20260504130159 22 56 9.7 20.9 0.00 0.00 0.00 72 1016.7
20260504120151 20 40 6.4 14.5 0.00 0.00 0.00 83 1016.4
20260504110144 18 26 6.4 12.9 0.00 0.00 0.00 88 1015.8
20260504100142 18 350 4.8 8.0 0.00 0.00 0.00 88 1015.4
20260504090120 19 5 6.4 12.9 0.00 0.00 0.00 83 1015.3
20260504081558 20 28 6.4 12.9 0.00 0.00 0.00 84 1015.4
20260504080118 20 350 4.8 14.5 0.00 0.00 0.00 84 1015.6
20260504070119 19 356 4.8 8.0 0.00 0.00 0.00 84 1015.5
20260504060107 20 34 4.8 11.3 0.00 0.00 0.00 81 1015.6
20260504044059 20 52 3.2 8.0 0.00 0.00 0.00 82 1017.1
20260504043100 20 52 3.2 8.0 0.00 0.00 0.00 81 1017.1
20260504042103 20 52 3.2 6.4 0.00 0.00 0.00 81 1017.1
20260504041053 20 52 4.8 8.0 0.00 0.00 0.00 80 1017.1
20260504040531 21 52 3.2 6.4 0.00 0.00 0.00 79 1017.1
20260504035057 20 54 4.8 8.0 0.00 0.00 0.30 80 1017.2
20260504034053 20 54 4.8 6.4 0.00 0.00 0.30 80 1017.1
20260504033056 20 55 3.2 6.4 0.00 0.00 0.30 80 1017.1
20260504032058 20 55 1.6 6.4 0.00 0.00 0.30 80 1017.3
20260504031053 20 55 3.2 6.4 0.00 0.00 0.30 80 1017.1
20260504031016 20 55 3.2 6.4 0.00 0.00 0.30 80 1017.1
20260504025051 21 55 3.2 1.6 0.00 0.00 0.30 79 1017.0
20260504023934 21 55 3.2 4.8 0.00 0.30 0.30 79 1017.2
20260504023414 21 55 1.6 3.2 0.00 0.30 0.30 79 1017.1
20260504021926 21 55 1.6 4.8 0.00 0.30 0.30 78 1016.9
20260504020930 21 55 3.2 6.4 0.00 0.30 0.30 77 1016.9
20260504020841 21 55 1.6 4.8 0.00 0.30 0.30 77 1016.8
20260504014908 21 55 4.8 11.3 0.00 0.30 0.30 76 1016.7
20260504013908 21 56 4.8 11.3 0.00 0.30 0.30 75 1016.7
20260504012910 22 51 4.8 9.7 0.00 0.30 0.30 75 1016.8
20260504011907 22 51 4.8 9.7 0.00 0.30 0.30 75 1016.7
20260504010907 22 55 4.8 9.7 0.00 0.30 0.30 75 1016.6
20260504005902 22 55 4.8 16.1 0.00 0.30 0.30 75 1016.4
20260504004901 22 54 6.4 14.5 0.00 0.30 0.30 74 1016.2
20260504003902 22 63 4.8 17.7 0.00 0.30 0.30 73 1016.1
20260504002848 22 65 4.8 9.7 0.00 0.30 0.30 73 1016.1
20260504001848 22 36 6.4 12.9 0.00 0.30 0.30 72 1016.1
20260504000846 22 56 6.4 14.5 0.00 0.30 0.30 71 1015.9
20260503235847 22 66 6.4 12.9 0.00 0.30 0.30 71 1015.8
20260503234854 23 81 4.8 12.9 0.00 0.30 0.30 70 1015.7
20260503233848 23 55 6.4 16.1 0.00 0.30 0.30 71 1015.8
20260503233322 23 56 6.4 14.5 0.00 0.30 0.30 70 1015.7
20260503232339 23 58 6.4 17.7 0.00 0.30 0.30 70 1015.7
20260503230846 23 59 8.0 16.1 0.00 0.33 0.30 69 1015.6
20260503225847 23 70 6.4 19.3 0.00 0.33 0.30 68 1015.6
20260503224845 24 50 6.4 14.5 0.00 0.33 0.30 68 1015.7
20260503223845 24 10 8.0 19.3 0.00 0.33 0.30 69 1015.6
20260503222846 24 50 4.8 14.5 0.00 0.33 0.30 68 1015.5
20260503221844 24 76 6.4 16.1 0.00 0.33 0.30 68 1015.5
20260503220846 24 20 6.4 17.7 0.00 0.33 0.30 69 1015.6
20260503215844 24 34 6.4 14.5 0.00 0.36 0.30 69 1015.5
20260503215412 24 70 6.4 16.1 0.00 0.36 0.30 69 1015.5
20260503215258 24 94 6.4 17.7 0.00 0.41 0.30 68 1015.3
20260503215107 24 79 6.4 22.5 0.00 0.41 0.30 67 1015.3
20260503205845 25 84 8.0 19.3 0.00 0.43 0.30 66 1015.4
20260503204846 25 22 9.7 20.9 0.00 0.43 0.30 65 1015.5
20260503203845 25 54 8.0 20.9 0.00 0.43 0.30 65 1015.6
20260503203315 26 78 8.0 17.7 0.00 0.43 0.30 62 1015.5
20260503201840 26 38 8.0 16.1 0.00 0.46 0.30 65 1015.5
20260503200838 26 82 8.0 19.3 0.00 0.46 0.30 65 1015.7
20260503195839 27 88 8.0 19.3 0.00 0.46 0.30 60 1015.8
20260503194839 26 327 9.7 20.9 0.00 0.46 0.30 63 1015.8
20260503194753 26 10 8.0 19.3 0.00 0.46 0.30 64 1016.1
20260503192834 26 92 6.4 17.7 0.00 0.46 0.30 63 1016.2
20260503191832 27 100 9.7 17.7 0.00 0.46 0.30 62 1016.3
20260503190834 27 356 8.0 17.7 0.00 0.46 0.30 61 1016.6
20260503185835 26 57 8.0 22.5 0.00 0.46 0.30 66 1016.8
20260503184819 26 91 11.3 24.1 0.00 0.46 0.30 66 1016.9
20260503183819 26 5 9.7 19.3 0.00 0.46 0.30 66 1017.0
20260503182818 26 15 9.7 20.9 0.00 0.46 0.30 70 1017.1
20260503182307 25 5 9.7 20.9 0.00 0.46 0.30 69 1017.2
20260503180820 25 42 8.0 19.3 0.00 0.46 0.30 69 1017.4
20260503175813 25 65 8.0 19.3 0.00 0.46 0.30 69 1017.5
20260503174812 24 96 8.0 16.1 0.00 0.46 0.30 72 1017.7
20260503174253 23 31 9.7 20.9 0.00 0.46 0.30 73 1017.7
20260503172814 23 5 8.0 16.1 0.00 0.46 0.30 74 1017.8
20260503171759 23 19 9.7 22.5 0.00 0.46 0.30 73 1017.8
20260503170756 23 15 9.7 20.9 0.00 0.46 0.30 74 1017.6